Vorticity
nan nan nan nan nan nan nan nan nan nan nan nan nan nan nan nan nan nan nan nan nan nan nan nan nan nan nan nan nan nan nan nan nan nan nan nan nan nan nan nan nan nan nan nan nan
nan 4 4 5 5 5 6 7 7 6 5 5 5 7 6 10 14 23 29 24 7 4 7 3 5 5 5 6 7 8 3 4 10 6 4 2 7 9 11 9 5 1 12 18 nan
nan 4 4 5 6 5 5 5 5 7 6 6 8 5 5 13 19 18 13 28 26 8 6 3 6 9 8 6 4 2 6 2 3 11 3 4 9 11 11 11 6 4 7 7 nan
nan 4 5 5 5 5 5 5 5 5 6 6 7 8 11 15 14 -10 -18 8 26 25 17 9 9 9 8 8 3 4 7 5 2 6 6 3 3 8 9 8 9 13 13 6 nan
nan 4 5 6 6 5 4 6 5 5 6 6 7 10 14 11 4 -11 1 10 12 11 25 28 12 7 5 3 10 11 4 7 7 2 3 1 -2 5 9 9 11 18 12 6 nan
nan 5 7 7 8 5 5 5 5 5 6 7 7 12 11 4 12 8 1 -3 2 6 13 16 14 8 14 12 3 7 11 8 8 7 7 3 1 1 0 7 11 12 8 7 nan
nan 6 6 8 8 6 6 6 5 6 6 8 12 14 14 10 -2 0 3 6 5 4 5 7 9 10 5 14 13 2 8 12 10 8 6 11 10 1 -3 0 7 9 10 9 nan
nan 6 6 8 7 7 7 6 6 5 8 14 18 14 10 19 8 7 9 12 16 14 10 4 7 16 9 6 19 17 5 5 11 12 10 4 12 10 6 6 4 5 10 11 nan
nan 6 6 6 7 7 7 7 6 11 18 22 22 13 8 14 17 15 10 7 12 19 18 10 10 10 20 12 9 13 11 7 7 11 13 3 5 11 9 5 7 7 7 8 nan
nan 8 6 7 7 7 8 13 18 21 24 16 8 7 4 0 4 4 3 3 6 16 19 12 3 4 8 14 6 9 3 8 13 11 10 7 5 11 12 7 4 6 6 6 nan
nan 9 6 6 7 8 13 16 22 15 5 5 2 -4 -5 5 6 4 5 5 10 14 12 6 3 10 3 6 2 2 6 7 7 9 15 13 7 7 6 10 12 8 7 5 nan
nan 10 8 6 9 11 10 10 10 7 6 12 16 10 13 12 14 18 19 17 9 3 8 9 8 6 8 5 8 3 3 5 12 15 4 12 11 10 8 5 7 8 9 9 nan
nan 10 9 9 8 9 7 11 9 7 8 15 21 17 22 17 6 11 14 15 14 7 11 11 9 9 7 1 10 11 9 5 7 14 7 8 13 12 8 12 10 9 8 8 nan
nan 9 7 6 6 7 12 10 5 7 9 16 13 12 9 7 9 14 6 9 11 12 9 11 17 13 9 4 9 12 13 4 4 -2 8 9 13 18 14 12 9 11 10 7 nan
nan 8 9 1 3 8 10 7 10 8 6 14 11 8 3 3 12 11 10 14 9 14 13 6 20 16 7 12 -4 13 18 10 4 -2 4 2 7 15 12 9 13 11 10 10 nan
nan 9 4 -0 3 11 7 8 10 9 11 7 6 1 1 7 10 7 10 8 13 19 12 1 1 23 19 10 7 4 13 15 9 13 18 10 4 7 10 6 8 12 10 9 nan
nan 8 1 5 11 9 5 8 10 6 9 9 4 -1 6 14 15 9 4 10 13 17 18 20 8 3 13 18 24 -1 1 6 12 11 18 19 7 7 9 9 12 6 8 10 nan
nan 3 -0 7 13 6 4 11 8 6 5 4 1 8 15 14 13 5 6 9 13 14 16 22 27 17 9 12 12 10 -2 4 7 7 12 15 4 15 14 7 6 9 11 12 nan
nan -1 11 12 8 5 7 7 8 7 9 5 8 16 12 6 4 10 12 13 12 10 16 17 13 13 25 19 4 9 3 -3 2 12 21 14 5 10 19 20 11 8 7 8 nan
nan 10 14 14 5 4 7 9 8 7 6 6 11 9 4 5 9 12 12 12 8 8 8 5 15 10 20 30 24 7 9 4 -1 6 12 8 13 19 14 7 12 9 8 8 nan
nan 11 13 8 3 7 9 11 10 11 7 6 6 4 4 8 10 8 6 10 11 7 5 9 12 9 9 30 22 10 -1 3 9 9 6 7 13 18 12 12 10 9 9 14 nan
nan 13 12 5 3 9 13 9 9 12 8 7 7 8 10 9 9 9 9 6 10 15 14 11 8 10 12 12 20 31 10 -3 -6 5 6 8 9 14 16 14 11 9 9 11 nan
nan 13 12 6 8 6 8 10 11 10 5 8 11 9 9 8 10 10 8 7 8 7 7 10 9 9 16 9 13 32 23 3 1 2 8 4 -2 2 16 14 13 14 13 9 nan
nan 8 9 8 9 13 9 8 11 11 10 8 9 10 7 9 8 7 10 8 5 9 12 15 11 4 5 3 9 1 9 30 25 3 5 8 4 -1 -0 11 15 12 10 13 nan
nan 11 11 13 10 9 8 7 7 9 12 8 8 7 6 7 8 6 1 8 14 12 16 13 5 7 8 10 12 5 5 10 24 24 6 6 4 1 -0 -1 5 14 13 12 nan
nan 9 8 15 21 15 4 5 5 3 8 6 4 4 8 9 6 4 9 10 5 -0 6 9 7 9 12 16 9 13 14 11 7 26 27 3 6 9 4 1 1 7 8 9 nan
nan nan nan nan nan nan nan nan nan nan nan nan nan nan nan nan nan nan nan nan nan nan nan nan nan nan nan nan nan nan nan nan nan nan nan nan nan nan nan nan nan nan nan nan nan
CAPE
11 11 15 14 13 17 12 24 25 28 29 40 32 26 19 28 46 1 0 0 0 0 2 6 3 0 0 0 0 0 0 0 0 0 0 0 0 0 0 0 0 0 0 0 0
7 7 9 10 13 10 16 16 24 23 21 28 38 38 25 27 17 0 0 0 0 1 1 12 19 0 0 0 0 0 0 0 0 0 0 0 0 0 0 0 0 0 0 0 0
14 13 10 10 14 9 11 10 14 18 20 21 23 30 41 16 2 0 3 0 0 10 49 45 44 73 0 0 0 0 0 0 0 0 0 0 0 0 0 0 0 0 0 0 0
24 17 17 17 10 14 4 5 10 11 9 10 15 26 37 14 0 5 0 0 0 2 10 19 19 46 1 0 0 0 0 0 0 0 0 0 0 0 0 0 0 0 0 0 0
22 20 16 26 22 14 4 4 18 11 8 5 12 17 20 5 0 0 0 0 0 0 38 76 105 55 24 0 0 0 0 0 0 0 0 0 0 0 0 0 0 0 0 0 0
22 22 24 29 36 27 7 9 17 10 4 3 6 12 13 11 0 0 0 0 0 0 0 72 57 44 65 10 0 0 0 0 0 0 0 0 0 0 0 0 0 0 0 0 0
17 17 24 37 44 29 15 10 17 6 0 3 6 11 16 0 0 0 0 0 0 0 0 1 4 81 38 4 0 0 0 0 0 0 0 0 0 0 0 0 0 0 0 0 0
16 19 20 20 27 24 20 12 7 0 0 0 5 11 9 0 0 0 0 0 0 0 0 0 0 12 95 1 0 0 0 0 0 0 0 0 0 0 0 0 0 0 0 0 0
15 20 20 7 16 16 14 10 1 0 0 0 7 17 0 0 0 0 0 0 0 0 0 0 82 94 25 79 2 4 0 0 0 0 0 0 0 0 0 0 0 0 0 0 0
23 29 20 2 13 8 6 2 0 0 0 0 23 11 0 0 0 0 0 0 0 2 0 3 62 51 87 27 42 2 0 0 0 0 0 0 0 0 0 0 0 0 0 0 0
25 38 13 13 21 5 3 0 0 0 0 0 0 2 0 0 0 0 0 0 0 10 5 10 92 44 36 13 0 0 3 0 0 0 0 0 0 0 0 0 0 0 0 0 0
26 34 18 21 22 1 0 0 0 0 1 0 0 0 0 0 0 0 0 0 0 5 7 9 47 34 88 103 12 14 2 3 1 0 0 0 0 0 0 0 0 0 0 0 0
24 23 21 27 19 0 0 0 0 0 2 0 0 0 0 0 0 0 0 0 0 0 5 27 0 15 154 93 75 46 18 4 2 0 0 0 0 0 0 0 0 0 0 0 0
27 26 29 20 21 0 0 0 0 0 0 0 0 0 0 0 0 0 0 0 0 0 0 33 1 11 167 144 101 18 14 1 0 0 0 0 0 0 0 0 0 0 0 0 0
20 36 49 26 2 3 0 0 0 4 0 0 0 0 0 0 0 0 0 0 0 1 21 1 9 0 48 48 131 57 96 31 2 7 1 0 0 0 0 0 0 0 0 0 0
17 51 59 39 5 7 3 0 0 0 0 0 0 0 0 0 0 0 0 0 0 1 0 0 3 2 2 57 116 68 55 85 27 7 3 0 0 0 0 0 0 0 0 0 0
26 66 36 0 2 13 0 0 0 0 0 0 0 0 0 0 0 2 0 0 13 37 20 0 0 0 1 49 149 60 122 41 39 3 3 0 5 0 0 0 0 0 0 0 0
47 26 45 0 1 2 0 0 0 0 0 0 0 0 0 0 0 1 0 0 0 17 37 56 6 0 6 6 22 37 8 52 66 20 0 0 5 0 0 0 0 0 0 0 0
9 5 9 2 1 4 0 4 0 0 0 0 0 0 0 4 0 0 0 0 16 2 12 14 12 17 13 2 17 40 90 3 6 0 3 4 0 0 0 0 0 0 0 0 0
0 3 3 3 13 3 7 0 0 0 0 0 0 0 0 0 0 0 0 0 10 31 33 46 34 0 9 56 86 95 21 29 18 70 9 0 0 0 0 0 0 0 0 0 0
0 4 7 15 21 19 5 2 0 0 0 0 0 0 0 2 0 1 0 6 6 23 32 38 37 2 1 33 86 91 134 84 33 24 26 10 0 0 0 0 0 0 0 0 0
7 5 16 17 12 19 10 0 0 0 0 0 0 0 1 6 13 18 11 36 37 72 29 12 19 9 0 0 2 227 25 93 118 93 62 64 23 0 0 0 0 0 0 0 0
8 18 27 17 7 12 2 3 0 1 0 0 4 3 11 23 49 24 24 25 0 0 149 38 36 5 0 28 10 8 95 99 41 4 13 59 0 0 0 0 0 0 0 0 0
3 9 12 13 14 3 5 3 2 0 1 4 8 21 31 39 26 33 6 0 4 0 5 44 19 11 16 20 24 6 5 1 221 184 14 52 0 0 0 0 0 0 0 0 0
2 9 2 6 18 6 3 3 0 1 8 14 10 17 4 3 10 8 1 0 0 4 29 0 4 11 8 1 12 9 14 9 6 84 90 34 0 0 0 0 0 0 0 0 0
1 5 2 7 1 13 11 5 3 1 6 1 9 2 0 2 0 6 12 0 0 0 0 9 0 0 0 0 0 2 0 1 7 18 25 0 0 0 0 0 0 0 0 0 0
8 7 3 4 7 10 2 0 2 0 1 0 0 1 0 0 2 14 7 4 0 0 1 2 0 1 0 2 0 0 0 0 0 2 7 3 0 0 0 0 0 0 0 0 0